This demonstration page uses our WeatherBlox Daily Observations layout. Learn more.

39.92423, -83.80882

Hourly Observations for December 17, 2017

Temp ( °F °C ) Dew Point ( °F °C ) Humidity (%) Winds ( mph kmh ) Pressure ( in mb ) Visibility ( mi km ) Precip ( " mm )
12:56 am 00:56 Clear 35 1.7 27 -2.8 72 72 SSW 8 13 30.18 1022 10 16.0934 0 0
1:56 am 01:56 Clear 35 1.7 28 -2.2 76 76 SSW 7 11 30.17 1022 10 16.0934 0 0
2:56 am 02:56 Clear 35 1.7 28 -2.2 76 76 S 5 7 30.16 1021 10 16.0934 0 0
3:56 am 03:56 Clear 35 1.7 29 -1.7 78 78 SSW 7 11 30.18 1022 10 16.0934 0 0
5:56 am 05:56 Clear 36 2.2 29 -1.7 76 76 SSW 7 11 30.17 1022 10 16.0934 0 0
6:56 am 06:56 Clear 36 2.2 29 -1.7 76 76 S 5 7 30.18 1022 10 16.0934 0 0
7:56 am 07:56 Sunny 36 2.2 29 -1.7 76 76 SW 6 9 30.2 1023 10 16.0934 0 0
8:56 am 08:56 Sunny 36 2.2 29 -1.7 76 76 SSW 7 11 30.2 1023 10 16.0934 0 0
9:56 am 09:56 Mostly Sunny 38 3.3 30 -1.1 73 73 SSW 5 7 30.19 1022 10 16.0934 0 0
10:56 am 10:56 Mostly Cloudy 39 3.9 31 -0.6 73 73 SSE 6 9 30.16 1021 10 16.0934 0 0
11:56 am 11:56 Cloudy with Light Rain 40 4.4 30 -1.1 68 68 SSW 6 9 30.15 1021 10 16.0934 0 0.0254
12:56 pm 12:56 Cloudy with Light Rain 40 4.4 33 0.6 77 77 SSW 6 9 30.14 1021 10 16.0934 0 0.0254
1:56 pm 13:56 Cloudy 40 4.4 32 0 73 73 SW 8 13 30.14 1021 10 16.0934 0 0.0254
2:56 pm 14:56 Cloudy with Light Rain 41 5 34 1.1 76 76 S 3 6 30.13 1020 10 16.0934 0 0.0254
3:56 pm 15:56 Cloudy 40 4.4 36 2.2 86 86 SSE 5 7 30.12 1020 10 16.0934 0 0.0254
4:56 pm 16:56 Cloudy 39 3.9 35 1.7 86 86 S 5 7 30.11 1020 10 16.0934 0 0
5:56 pm 17:56 Cloudy 38 3.3 34 1.1 86 86 S 5 7 30.11 1020 10 16.0934 0 0
6:56 pm 18:56 Cloudy 39 3.9 33 0.6 79 79 S 3 6 30.11 1020 10 16.0934 0 0
7:56 pm 19:56 Cloudy 39 3.9 32 0 76 76 S 6 9 30.11 1020 10 16.0934 0 0
8:56 pm 20:56 Cloudy 40 4.4 32 0 73 73 SSW 6 9 30.13 1020 10 16.0934 0 0
9:56 pm 21:56 Cloudy 40 4.4 32 0 73 73 SSW 8 13 30.13 1020 10 16.0934 0 0
10:56 pm 22:56 Cloudy 40 4.4 33 0.6 77 77 SSW 8 13 30.11 1020 10 16.0934 0 0
11:56 pm 23:56 Cloudy 39 3.9 33 0.6 79 79 SW 8 13 30.12 1020 10 16.0934 0 0

Powered by AerisWeather